Meteo Giornale » Osservazioni meteo Italia » Treviso-S Angelo

ore: 22:20 - Osservazioni Meteo Treviso-S Angelo
Lat. 45° 39' N Lon. 12° 11' E Alt. 18 metri s.l.m.

foschia Europe/Rome

7 °C

Foschia

Temp. 24 Ore

7 °C

14 °C

Nord

1.8 Km/h

Dew point 7 °C

Umidità 100 %

Visibilità  3 Km

Il sole sorge alle ore 07:06

Il sole tramonta alle ore 17:43

Data e Ora Cielo e Fenomeni T °C DP °C Um. % Pres. hPa Vis. km Vento km/h
Oggi h: 22:20 foschia Foschia 7 7 100 1024 3 N 1.8
Oggi h: 21:50 foschia Foschia Nebbia a Strati 8 8 100 1024 3 N 1.8
Oggi h: 21:20 sereno Sereno 8 7 93 1024 6 N 3.7
Oggi h: 20:20 sereno Sereno 9 8 93 1024 7 N 1.8
Oggi h: 19:50 sereno Sereno 9 8 93 1024 8 N 3.7
Oggi h: 19:20 sereno Sereno 10 8 87 1023 8 N 3.7
Oggi h: 18:50 sereno Sereno 11 9 87 1023 8 N 5.5
Oggi h: 18:20 sereno Sereno 12 9 81 1023 8 N 3.7
Oggi h: 17:50 sereno Sereno 12 8 76 1023 8 N 5.5
Oggi h: 16:50 sereno Sereno 14 9 71 1023 10 E/NE 9.3
Oggi h: 16:20 sereno Sereno 14 9 71 1023 10 NE 7.4
Oggi h: 15:50 poco_nuvoloso Poco Nuvoloso 14 9 71 1023 10 N 3.7
Oggi h: 14:50 poco_nuvoloso Poco Nuvoloso 14 9 71 1023 10 E/SE 7.4
Oggi h: 14:20 poco_nuvoloso Poco Nuvoloso 14 8 67 1023 10 N 5.5
Oggi h: 13:50 nuvoloso Nuvoloso 13 9 76 1024 10 E/NE 9.3
Oggi h: 13:20 molto_nuvoloso Molto Nuvoloso 13 9 76 1024 10 E/NE 11.1
Oggi h: 12:50 molto_nuvoloso Molto Nuvoloso 14 9 71 1024 8 NE 9.3
Oggi h: 12:20 nuvoloso Nuvoloso 13 9 76 1024 8 NE 11.1
Oggi h: 11:50 poco_nuvoloso Poco Nuvoloso 13 9 76 1024 8 E/NE 9.3
Oggi h: 11:20 poco_nuvoloso Poco Nuvoloso 12 9 81 1024 7 E/NE 7.4
Oggi h: 10:50 foschia Foschia 12 9 81 1025 5 N 5.5
Oggi h: 10:20 foschia Foschia 11 8 81 1025 5 N 5.5
Oggi h: 09:50 foschia Foschia 10 8 87 1025 5 N 5.5
Oggi h: 09:20 foschia Foschia 10 8 87 1025 5 N 5.5
Oggi h: 08:50 foschia Foschia 9 8 93 1024 4 N 5.5
Oggi h: 08:20 foschia Foschia 9 8 93 1024 3 N 5.5
Oggi h: 07:50 foschia Foschia 8 7 93 1023 2 N 1.8
Oggi h: 07:20 foschia Foschia 8 8 100 1023 2 N 3.7
Oggi h: 06:50 foschia Foschia 8 7 93 1023 2 N 1.8
Oggi h: 06:20 foschia Foschia 8 7 93 1023 2 N 5.5
Oggi h: 05:50 foschia Foschia 8 8 100 1023 2 N 3.7
Oggi h: 05:20 foschia Foschia 8 7 93 1022 2 N 1.8
Oggi h: 04:50 foschia Foschia 8 7 93 1022 2 N 3.7
Oggi h: 04:20 foschia Foschia 8 7 93 1022 2 N 1.8
Oggi h: 03:50 foschia Foschia 8 8 100 1022 2 N 1.8
Oggi h: 03:20 foschia Foschia 8 8 100 1022 2 N 3.7
Oggi h: 02:50 foschia Foschia 8 8 100 1022 2 N 1.8
Oggi h: 02:20 foschia Foschia 8 8 100 1023 2 N 3.7
Oggi h: 01:50 foschia Foschia 8 8 100 1023 2 N 3.7
Oggi h: 01:20 foschia Foschia 8 8 100 1023 2 N 5.5
Oggi h: 00:50 foschia Foschia 8 8 100 1023 2 N 5.5
Oggi h: 00:20 foschia Foschia 8 8 100 1023 2 N 5.5
Ieri h: 23:50 foschia Foschia 8 8 100 1023 2 N 5.5
Ieri h: 23:20 foschia Foschia 8 8 100 1023 2 N 3.7
Ieri h: 22:50 foschia Foschia 8 8 100 1023 3 N 3.7